User: anonymous   Login
Location: Alfortville
(48.8058°N, 2.4204°E)
Time: 05:21:10
(UTC+00:00)
Language:

Cosmos 1140 Rocket - Orbit

View from above orbital plane
View from above orbital plane
View from above satellite
View from above satellite

Ground track
Ground track

The orbit data is extracted from the following two-line orbital elements,

1 11574U 79089B   22017.37699035  .00000026  00000-0  16193-4 0  9997
2 11574  74.0704   6.4926 0016593 208.8352 151.1888 14.40842705218199
Epoch (UTC): 17 January 2022 09:02:51
Eccentricity: 0.0016593
inclination: 74.0704°
perigee height: 744 km
apogee height: 767 km
right ascension of ascending node: 6.4926°
argument of perigee: 208.8352°
revolutions per day: 14.40842705
mean anomaly at epoch: 151.1888°
orbit number at epoch: 21819

The dashed part of the orbit path shows where the satellite is in the earth's shadow,  

DLR